Location: Bern�tre
(50.1974°N, 2.0915°E)
Time: 09:16:34
(UTC+00:00)

In-Cosmos 22 - Pass Details

Date: 18 September 2020
Orbit: 785 x 876 km, 81.2° (Epoch: 27 October)

Event Time Altitude Azimuth Distance (km) Brightness Sun altitude
Rises 19:07:29 0° 349° (N) 3,290 7.7 -11.8°
Reaches altitude 10° 19:09:53 10° 352° (N) 2,357 6.9 -12.2°
Maximum altitude 19:15:10 67° 75° (ENE) 858 4.0 -13.0°
Drops below altitude 10° 19:20:28 10° 158° (SSE) 2,364 6.2 -13.8°
Enters shadow 19:21:22 - 160° (SSE) 2,715 6.5 -13.9°
